User: anonymous   Login
Location: Burgberg
(50.1428°N, 11.0671°E)
Time: 18:46:40
(UTC+00:00)
Language:

STARLINK-63 - Orbit

View from above orbital plane
View from above orbital plane
View from above satellite
View from above satellite

Ground track
Ground track

The orbit data is extracted from the following two-line orbital elements,

1 44265C 19029AG  20091.51969427 -.00025465  00000-0 -14578-2 0   911
2 44265  53.0000 203.3153 0001588 133.1039 256.9169 15.12156720    19
Epoch (UTC): 31 March 2020 12:28:21
Eccentricity: 0.0001588
inclination: 53.0000°
perigee height: 528 km
apogee height: 531 km
right ascension of ascending node: 203.3153°
argument of perigee: 133.1039°
revolutions per day: 15.12156720
mean anomaly at epoch: 256.9169°
orbit number at epoch: 1

The dashed part of the orbit path shows where the satellite is in the earth's shadow,  

DLR